sat.trackr.live / text

‹ back to catalog

STARLINK-32942

NORAD 63120 · 2025-039S

PAYLOAD ACTIVE UNKNOWN

§ Identity

Operator
Country
US
Launch date
2025-02-27
Launch site
AFETR
Launch vehicle
Mass (kg)
RCS (m²)

Purposes: comms

External: N2YO · Heavens-Above · Gunter

§ Orbital elements

Epoch: 2026-09-20T12:21:16.747488Z

Period
94.27 min
Inclination
43.0040°
Eccentricity
0.0001393
Mean motion
15.27588055 rev/d
Perigee alt
482.1 km
Apogee alt
484.0 km
Semi-major
6,861.2 km
B*
2.5357e-4
RAAN
352.4301°
Arg perigee
260.0689°
Mean anomaly
100.0006°
Rev number
8,786

§ Raw data

STARLINK-329421 63120U 25039S   26263.51477717  .00006724  00000+0  25357-3 0  99922 63120  43.0040 352.4301 0001393 260.0689 100.0006 15.27588055 87862

JSON: /api/v1/satellites/63120 · /tle

For live sub-satellite position, see the globe view (requires WebGL).

§ Visibility from observer

Set your observer location to see the next 7 days of passes ≥ 10°. The values pass through the URL so the page stays shareable.

No JS? Fill the form by hand. The geolocation button needs JavaScript.